RH
27 28 29 31 31 30 28 32 40 41 42 45 48 53 53 53 56 59 61 63 68 69 79 87 85 88 85 86 79 88 96 98
28 30 30 31 34 37 37 40 41 47 50 51 53 54 60 61 60 65 66 70 73 76 81 82 79 81 84 83 87 85 89 89
32 32 33 34 34 36 39 41 47 52 58 62 64 63 63 64 67 74 70 74 76 82 84 83 85 80 84 86 84 77 89 82
34 34 35 37 39 39 39 42 45 51 56 61 69 69 70 69 79 82 82 80 86 93 90 84 88 85 82 81 81 76 88 88
35 34 34 36 39 42 44 48 50 52 54 56 63 66 69 76 77 82 84 89 92 94 93 89 90 84 79 78 81 82 89 96
39 38 37 38 39 40 41 44 48 52 55 59 63 68 67 71 79 83 88 79 84 93 93 95 90 87 80 78 81 89 92 92
44 44 45 46 48 51 53 52 54 55 58 59 63 65 66 75 77 78 84 82 86 86 88 96 93 85 80 84 80 86 85 93
51 50 50 50 53 58 60 62 63 59 54 60 67 67 68 70 75 77 78 75 86 83 81 83 87 94 86 84 88 80 84 94
57 60 60 61 62 61 60 60 59 63 64 64 65 73 75 75 76 77 78 76 76 85 87 89 88 83 83 86 87 81 87 91
66 68 72 72 71 72 70 63 65 68 68 70 77 76 70 63 63 63 64 67 72 66 75 82 87 81 85 96 87 80 84 94
72 74 73 72 68 66 63 64 53 58 63 68 71 70 68 62 58 53 42 48 50 58 71 71 69 80 72 85 95 95 90 95
77 76 72 68 67 68 66 62 55 54 63 67 67 60 56 55 51 50 53 43 42 46 55 61 62 65 67 68 78 94 95 99
71 66 65 64 62 63 65 61 61 64 69 70 64 60 57 54 52 45 45 42 37 41 51 63 64 64 69 69 76 87 93 92
60 56 52 49 52 54 57 60 67 77 73 74 67 60 61 56 48 46 42 34 33 32 33 45 57 66 67 75 78 81 86 92
38 41 45 52 57 61 74 88 89 91 91 90 80 72 64 61 58 53 38 29 27 31 34 41 48 55 66 73 78 86 84 96
48 50 58 60 70 91 98 98 90 96 92 94 89 80 76 65 45 35 28 22 26 26 25 29 34 35 41 48 64 74 80 93
46 52 55 66 87 95 99 91 93 96 95 98 90 84 70 43 31 26 25 25 26 27 29 29 33 40 47 67 63 67 74 79
50 46 54 75 92 98 98 97 99 99 97 88 82 71 48 39 35 31 28 30 28 27 30 31 33 41 54 76 90 79 75 98
50 50 58 80 95 98 98 98 99 97 91 85 78 66 52 45 46 39 36 31 28 29 31 35 39 46 67 75 87 92 80 72